User: anonymous   Login
Location: Helsinki
(60.1699°N, 24.9384°E)
Time: 21:12:00
(UTC+02:00)
Language:

Vanguard 2 Rocket - Orbit

View from above orbital plane
View from above orbital plane
View from above satellite
View from above satellite

Ground track
Ground track

The orbit data is extracted from the following two-line orbital elements,

1 00012U 59001B   22338.01163044  .00000346  00000-0  20584-3 0  9990
2 00012  32.8986  82.6985 1662903 126.6931 249.8237 11.44757410383052
Epoch (UTC): 04 December 2022 00:16:44
Eccentricity: 0.1662903
inclination: 32.8986°
perigee height: 555 km
apogee height: 3321 km
right ascension of ascending node: 82.6985°
argument of perigee: 126.6931°
revolutions per day: 11.44757410
mean anomaly at epoch: 249.8237°
orbit number at epoch: 38305

The dashed part of the orbit path shows where the satellite is in the earth's shadow,  

DLR